| time (UTC) | temp F | wind direction | speed knots | gust knots | rain 1hr in | rain 24hr in | rain mn in | humidity % | barometer mb |
| 20260905191503 | 60 | 254 | 0.0 | 2.6 | 0.00 | 0.00 | 0.00 | 72 | 1023.9 |
| 20260905191004 | 60 | 254 | 1.7 | 2.6 | 0.00 | 0.00 | 0.00 | 72 | 1023.9 |
| 20260905190504 | 60 | 260 | 1.7 | 5.2 | 0.00 | 0.00 | 0.00 | 72 | 1024.0 |
| 20260905190004 | 60 | 257 | 4.3 | 6.1 | 0.00 | 0.00 | 0.00 | 71 | 1024.1 |
| 20260905185504 | 60 | 238 | 2.6 | 7.0 | 0.00 | 0.00 | 0.00 | 71 | 1024.1 |
| 20260905184503 | 61 | 245 | 4.3 | 6.1 | 0.00 | 0.00 | 0.00 | 70 | 1024.1 |
| 20260905184003 | 61 | 248 | 4.3 | 7.0 | 0.00 | 0.00 | 0.00 | 70 | 1024.1 |
| 20260905183504 | 61 | 262 | 2.6 | 5.2 | 0.00 | 0.00 | 0.00 | 69 | 1024.0 |
| 20260905183004 | 62 | 269 | 2.6 | 2.6 | 0.00 | 0.00 | 0.00 | 68 | 1024.1 |
| 20260905182504 | 62 | 269 | 1.7 | 6.1 | 0.00 | 0.00 | 0.00 | 67 | 1024.2 |
| 20260905182003 | 62 | 265 | 2.6 | 5.2 | 0.00 | 0.00 | 0.00 | 67 | 1024.2 |
| 20260905181503 | 63 | 265 | 2.6 | 5.2 | 0.00 | 0.00 | 0.00 | 66 | 1024.2 |
| 20260905181004 | 63 | 275 | 2.6 | 5.2 | 0.00 | 0.00 | 0.00 | 65 | 1024.2 |
| 20260905180504 | 64 | 265 | 2.6 | 7.0 | 0.00 | 0.00 | 0.00 | 64 | 1024.2 |
| 20260905180004 | 64 | 267 | 4.3 | 6.1 | 0.00 | 0.00 | 0.00 | 63 | 1024.2 |
| 20260905175504 | 65 | 274 | 4.3 | 6.1 | 0.00 | 0.00 | 0.00 | 62 | 1024.2 |
| 20260905175005 | 65 | 265 | 4.3 | 7.0 | 0.00 | 0.00 | 0.00 | 62 | 1024.1 |
| 20260905174504 | 66 | 275 | 3.5 | 7.8 | 0.00 | 0.00 | 0.00 | 60 | 1024.1 |
| 20260905174004 | 66 | 275 | 5.2 | 7.8 | 0.00 | 0.00 | 0.00 | 59 | 1024.1 |
| 20260905173504 | 67 | 275 | 3.5 | 7.0 | 0.00 | 0.00 | 0.00 | 59 | 1024.1 |
| 20260905172503 | 68 | 276 | 4.3 | 7.8 | 0.00 | 0.00 | 0.00 | 57 | 1024.0 |
| 20260905172003 | 68 | 286 | 3.5 | 7.8 | 0.00 | 0.00 | 0.00 | 56 | 1024.0 |
| 20260905171504 | 68 | 239 | 5.2 | 8.7 | 0.00 | 0.00 | 0.00 | 56 | 1024.1 |
| 20260905171004 | 68 | 258 | 5.2 | 10.4 | 0.00 | 0.00 | 0.00 | 56 | 1024.1 |
| 20260905170504 | 68 | 271 | 3.5 | 7.8 | 0.00 | 0.00 | 0.00 | 57 | 1024.0 |
| 20260905170004 | 68 | 210 | 3.5 | 7.8 | 0.00 | 0.00 | 0.00 | 57 | 1023.9 |
| 20260905165504 | 68 | 260 | 4.3 | 8.7 | 0.00 | 0.00 | 0.00 | 56 | 1023.9 |
| 20260905164503 | 69 | 250 | 7.0 | 10.4 | 0.00 | 0.00 | 0.00 | 55 | 1024.0 |
| 20260905163504 | 69 | 243 | 6.1 | 10.4 | 0.00 | 0.00 | 0.00 | 55 | 1024.0 |
| 20260905163004 | 69 | 217 | 4.3 | 7.8 | 0.00 | 0.00 | 0.00 | 56 | 1024.0 |
| 20260905162504 | 69 | 232 | 3.5 | 7.0 | 0.00 | 0.00 | 0.00 | 56 | 1023.9 |
| 20260905162004 | 69 | 254 | 5.2 | 8.7 | 0.00 | 0.00 | 0.00 | 56 | 1023.9 |
| 20260905161503 | 69 | 212 | 4.3 | 8.7 | 0.00 | 0.00 | 0.00 | 55 | 1023.9 |
| 20260905161003 | 69 | 256 | 3.5 | 8.7 | 0.00 | 0.00 | 0.00 | 56 | 1024.0 |
| 20260905160505 | 69 | 240 | 2.6 | 7.8 | 0.00 | 0.00 | 0.00 | 56 | 1024.0 |
| 20260905160003 | 69 | 243 | 5.2 | 8.7 | 0.00 | 0.00 | 0.00 | 55 | 1024.0 |
| 20260905155504 | 69 | 250 | 4.3 | 7.8 | 0.00 | 0.00 | 0.00 | 55 | 1024.0 |
| 20260905154503 | 69 | 233 | 5.2 | 10.4 | 0.00 | 0.00 | 0.00 | 55 | 1024.1 |
| 20260905154004 | 70 | 223 | 5.2 | 10.4 | 0.00 | 0.00 | 0.00 | 54 | 1024.0 |
| 20260905153504 | 70 | 254 | 7.0 | 10.4 | 0.00 | 0.00 | 0.00 | 56 | 1024.0 |
| 20260905153003 | 70 | 291 | 5.2 | 7.8 | 0.00 | 0.00 | 0.00 | 57 | 1024.0 |
| 20260905152503 | 70 | 265 | 4.3 | 7.8 | 0.00 | 0.00 | 0.00 | 57 | 1023.9 |
| 20260905152004 | 70 | 249 | 2.6 | 7.0 | 0.00 | 0.00 | 0.00 | 56 | 1024.0 |
| 20260905151504 | 70 | 256 | 6.1 | 10.4 | 0.00 | 0.00 | 0.00 | 56 | 1024.1 |
| 20260905150503 | 70 | 282 | 7.8 | 11.3 | 0.00 | 0.00 | 0.00 | 56 | 1024.3 |
| 20260905150004 | 70 | 260 | 7.8 | 11.3 | 0.00 | 0.00 | 0.00 | 56 | 1024.3 |
| 20260905145503 | 70 | 246 | 6.1 | 10.4 | 0.00 | 0.00 | 0.00 | 57 | 1024.4 |
| 20260905144504 | 69 | 235 | 6.1 | 12.2 | 0.00 | 0.00 | 0.00 | 56 | 1024.3 |
| 20260905143504 | 69 | 238 | 5.2 | 11.3 | 0.00 | 0.00 | 0.00 | 58 | 1024.3 |
| 20260905143004 | 69 | 267 | 5.2 | 10.4 | 0.00 | 0.00 | 0.00 | 57 | 1024.4 |
| 20260905142504 | 69 | 290 | 6.1 | 13.0 | 0.00 | 0.00 | 0.00 | 57 | 1024.5 |
| 20260905141503 | 69 | 233 | 6.1 | 12.2 | 0.00 | 0.00 | 0.00 | 56 | 1024.5 |
| 20260905141004 | 69 | 249 | 7.0 | 10.4 | 0.00 | 0.00 | 0.00 | 59 | 1024.5 |
| 20260905140503 | 69 | 276 | 5.2 | 10.4 | 0.00 | 0.00 | 0.00 | 59 | 1024.6 |
| 20260905140004 | 69 | 293 | 4.3 | 10.4 | 0.00 | 0.00 | 0.00 | 59 | 1024.5 |
| 20260905135503 | 69 | 226 | 3.5 | 8.7 | 0.00 | 0.00 | 0.00 | 57 | 1024.5 |
| 20260905135004 | 69 | 256 | 5.2 | 11.3 | 0.00 | 0.00 | 0.00 | 57 | 1024.5 |
| 20260905134504 | 69 | 241 | 4.3 | 7.8 | 0.00 | 0.00 | 0.00 | 58 | 1024.5 |
| 20260905134003 | 69 | 266 | 6.1 | 11.3 | 0.00 | 0.00 | 0.00 | 57 | 1024.5 |
| 20260905133003 | 69 | 274 | 6.1 | 12.2 | 0.00 | 0.00 | 0.00 | 58 | 1024.5 |
| 20260905132004 | 70 | 277 | 7.8 | 12.2 | 0.00 | 0.00 | 0.00 | 58 | 1024.5 |
| 20260905131503 | 69 | 274 | 7.8 | 15.6 | 0.00 | 0.00 | 0.00 | 56 | 1024.4 |
| 20260905131003 | 70 | 251 | 8.7 | 12.2 | 0.00 | 0.00 | 0.00 | 55 | 1024.4 |
| 20260905130504 | 70 | 204 | 5.2 | 10.4 | 0.00 | 0.00 | 0.00 | 55 | 1024.4 |
| 20260905130004 | 70 | 280 | 6.1 | 12.2 | 0.00 | 0.00 | 0.00 | 56 | 1024.3 |
| 20260905125504 | 70 | 254 | 6.1 | 10.4 | 0.00 | 0.00 | 0.00 | 55 | 1024.3 |
| 20260905125003 | 70 | 249 | 7.0 | 12.2 | 0.00 | 0.00 | 0.00 | 57 | 1024.2 |
| 20260905124503 | 69 | 297 | 4.3 | 8.7 | 0.00 | 0.00 | 0.00 | 60 | 1024.2 |
| 20260905124003 | 69 | 184 | 5.2 | 10.4 | 0.00 | 0.00 | 0.00 | 58 | 1024.1 |
| 20260905123504 | 68 | 203 | 7.0 | 10.4 | 0.00 | 0.00 | 0.00 | 56 | 1024.1 |
| 20260905123003 | 69 | 228 | 7.8 | 11.3 | 0.00 | 0.00 | 0.00 | 56 | 1024.2 |
| 20260905122004 | 69 | 256 | 6.1 | 10.4 | 0.00 | 0.00 | 0.00 | 56 | 1024.2 |
| 20260905121504 | 69 | 212 | 4.3 | 10.4 | 0.00 | 0.00 | 0.00 | 59 | 1024.1 |
| 20260905121004 | 69 | 202 | 5.2 | 12.2 | 0.00 | 0.00 | 0.00 | 58 | 1024.2 |
| 20260905120003 | 68 | 280 | 4.3 | 10.4 | 0.00 | 0.00 | 0.00 | 60 | 1024.0 |
| 20260905115503 | 67 | 237 | 5.2 | 10.4 | 0.00 | 0.00 | 0.00 | 61 | 1024.0 |
| 20260905115004 | 66 | 281 | 3.5 | 7.0 | 0.00 | 0.00 | 0.00 | 62 | 1023.9 |
| 20260905114004 | 67 | 280 | 5.2 | 8.7 | 0.00 | 0.00 | 0.00 | 59 | 1024.0 |
| 20260905113004 | 68 | 283 | 6.1 | 11.3 | 0.00 | 0.00 | 0.00 | 57 | 1024.1 |
| 20260905112504 | 68 | 301 | 6.1 | 10.4 | 0.00 | 0.00 | 0.00 | 58 | 1024.1 |
| 20260905112004 | 68 | 277 | 7.0 | 10.4 | 0.00 | 0.00 | 0.00 | 58 | 1024.1 |
| 20260905111504 | 68 | 235 | 5.2 | 11.3 | 0.00 | 0.00 | 0.00 | 58 | 1024.2 |
| 20260905111004 | 68 | 265 | 4.3 | 10.4 | 0.00 | 0.00 | 0.00 | 59 | 1024.2 |
| 20260905110504 | 67 | 257 | 4.3 | 7.0 | 0.00 | 0.00 | 0.00 | 61 | 1024.2 |
| 20260905110004 | 66 | 261 | 5.2 | 10.4 | 0.00 | 0.00 | 0.00 | 59 | 1024.3 |
| 20260905105503 | 67 | 310 | 3.5 | 8.7 | 0.00 | 0.00 | 0.00 | 59 | 1024.2 |
| 20260905105003 | 67 | 292 | 6.1 | 10.4 | 0.00 | 0.00 | 0.00 | 58 | 1024.3 |
| 20260905104003 | 67 | 224 | 3.5 | 7.8 | 0.00 | 0.00 | 0.00 | 57 | 1024.2 |
| 20260905103504 | 67 | 251 | 5.2 | 8.7 | 0.00 | 0.00 | 0.00 | 59 | 1024.3 |
| 20260905103004 | 67 | 230 | 2.6 | 10.4 | 0.00 | 0.00 | 0.00 | 60 | 1024.3 |
| 20260905102503 | 66 | 278 | 5.2 | 10.4 | 0.00 | 0.00 | 0.00 | 62 | 1024.3 |
| 20260905102004 | 66 | 274 | 4.3 | 7.8 | 0.00 | 0.00 | 0.00 | 63 | 1024.3 |
| 20260905101504 | 65 | 254 | 3.5 | 8.7 | 0.00 | 0.00 | 0.00 | 65 | 1024.3 |
| 20260905101004 | 64 | 209 | 3.5 | 6.1 | 0.00 | 0.00 | 0.00 | 64 | 1024.2 |
| 20260905100504 | 65 | 279 | 3.5 | 7.8 | 0.00 | 0.00 | 0.00 | 64 | 1024.3 |
| 20260905095504 | 66 | 352 | 3.5 | 5.2 | 0.00 | 0.00 | 0.00 | 64 | 1024.2 |
| 20260905095004 | 66 | 355 | 2.6 | 5.2 | 0.00 | 0.00 | 0.00 | 66 | 1024.2 |
| 20260905094504 | 66 | 345 | 2.6 | 6.1 | 0.00 | 0.00 | 0.00 | 64 | 1024.1 |
| 20260905094003 | 66 | 348 | 2.6 | 6.1 | 0.00 | 0.00 | 0.00 | 66 | 1024.0 |
| 20260905093503 | 66 | 288 | 2.6 | 5.2 | 0.00 | 0.00 | 0.00 | 66 | 1024.0 |
| 20260905093003 | 66 | 306 | 4.3 | 7.0 | 0.00 | 0.00 | 0.00 | 65 | 1023.9 |
| 20260905092504 | 65 | 270 | 7.0 | 10.4 | 0.00 | 0.00 | 0.00 | 65 | 1023.8 |
| 20260905092004 | 65 | 272 | 5.2 | 12.2 | 0.00 | 0.00 | 0.00 | 64 | 1023.8 |
| 20260905091503 | 64 | 268 | 6.1 | 10.4 | 0.00 | 0.00 | 0.00 | 66 | 1023.8 |
| 20260905091003 | 64 | 278 | 6.1 | 10.4 | 0.00 | 0.00 | 0.00 | 67 | 1023.7 |
| 20260905090504 | 64 | 301 | 1.7 | 7.0 | 0.00 | 0.00 | 0.00 | 70 | 1023.8 |
| 20260905090004 | 64 | 276 | 2.6 | 7.8 | 0.00 | 0.00 | 0.00 | 68 | 1023.7 |
| 20260905085503 | 63 | 283 | 2.6 | 8.7 | 0.00 | 0.00 | 0.00 | 69 | 1023.6 |
| 20260905084504 | 62 | 297 | 2.6 | 7.0 | 0.00 | 0.00 | 0.00 | 71 | 1023.5 |
| 20260905084004 | 62 | 298 | 4.3 | 11.3 | 0.00 | 0.00 | 0.00 | 71 | 1023.6 |
| 20260905083504 | 63 | 291 | 7.8 | 12.2 | 0.00 | 0.00 | 0.00 | 70 | 1023.5 |
| 20260905083003 | 62 | 251 | 4.3 | 7.0 | 0.00 | 0.00 | 0.00 | 72 | 1023.5 |
| 20260905082503 | 62 | 282 | 4.3 | 7.0 | 0.00 | 0.00 | 0.00 | 73 | 1023.5 |
| 20260905082004 | 61 | 340 | 3.5 | 8.7 | 0.00 | 0.00 | 0.00 | 74 | 1023.3 |
| 20260905081503 | 61 | 261 | 5.2 | 10.4 | 0.00 | 0.00 | 0.00 | 75 | 1023.4 |
| 20260905080504 | 60 | 291 | 2.6 | 6.1 | 0.00 | 0.00 | 0.00 | 76 | 1023.3 |
| 20260905080004 | 60 | 244 | 2.6 | 5.2 | 0.00 | 0.00 | 0.00 | 78 | 1023.3 |
| 20260905075004 | 58 | 232 | 0.0 | 0.0 | 0.00 | 0.00 | 0.00 | 81 | 1023.1 |
| 20260905073504 | 55 | 250 | 0.9 | 1.7 | 0.00 | 0.00 | 0.00 | 88 | 1023.1 |
| 20260905073003 | 54 | 261 | 0.9 | 1.7 | 0.00 | 0.00 | 0.00 | 90 | 1023.1 |
| 20260905072503 | 54 | 261 | 0.0 | 0.0 | 0.00 | 0.00 | 0.00 | 91 | 1023.1 |
| 20260905071004 | 52 | 261 | 0.0 | 0.0 | 0.00 | 0.00 | 0.00 | 91 | 1023.0 |
| 20260905070503 | 51 | 261 | 0.0 | 1.7 | 0.00 | 0.00 | 0.00 | 91 | 1022.9 |
| 20260905070004 | 51 | 261 | 0.0 | 0.0 | 0.00 | 0.00 | 0.00 | 91 | 1022.9 |
| 20260905065504 | 51 | 261 | 0.0 | 0.0 | 0.00 | 0.00 | 0.00 | 90 | 1022.8 |
| 20260905065004 | 51 | 261 | 0.0 | 0.0 | 0.00 | 0.01 | 0.00 | 90 | 1022.8 |
| 20260905064504 | 50 | 261 | 0.0 | 0.0 | 0.00 | 0.01 | 0.00 | 90 | 1022.8 |
| 20260905064004 | 50 | 261 | 0.0 | 0.0 | 0.00 | 0.01 | 0.00 | 90 | 1022.6 |
| 20260905063503 | 50 | 261 | 0.0 | 0.0 | 0.00 | 0.02 | 0.00 | 89 | 1022.6 |
| 20260905063004 | 50 | 261 | 0.0 | 0.0 | 0.00 | 0.02 | 0.00 | 89 | 1022.6 |
| 20260905062504 | 50 | 261 | 0.0 | 1.7 | 0.00 | 0.02 | 0.00 | 89 | 1022.6 |
| 20260905062004 | 50 | 261 | 0.0 | 1.7 | 0.00 | 0.02 | 0.00 | 89 | 1022.5 |
| 20260905060003 | 50 | 261 | 0.0 | 0.0 | 0.00 | 0.03 | 0.00 | 87 | 1022.1 |
| 20260905055003 | 51 | 261 | 0.9 | 1.7 | 0.00 | 0.03 | 0.00 | 86 | 1022.0 |
| 20260905054503 | 51 | 261 | 0.0 | 0.0 | 0.00 | 0.03 | 0.00 | 86 | 1022.0 |
| 20260905054003 | 51 | 261 | 0.0 | 0.0 | 0.00 | 0.03 | 0.00 | 86 | 1021.9 |
| 20260905053503 | 52 | 261 | 0.0 | 0.9 | 0.00 | 0.03 | 0.00 | 86 | 1021.7 |
| 20260905053004 | 52 | 261 | 0.9 | 2.6 | 0.00 | 0.04 | 0.00 | 86 | 1021.6 |
| 20260905052504 | 52 | 261 | 0.9 | 2.6 | 0.00 | 0.04 | 0.00 | 86 | 1021.6 |
| 20260905052004 | 52 | 263 | 1.7 | 2.6 | 0.00 | 0.04 | 0.00 | 86 | 1021.6 |
| 20260905051503 | 53 | 284 | 0.0 | 0.0 | 0.00 | 0.04 | 0.00 | 85 | 1021.5 |
| 20260905051004 | 53 | 284 | 0.0 | 0.0 | 0.00 | 0.04 | 0.00 | 84 | 1021.5 |
| 20260905050504 | 53 | 285 | 0.0 | 0.0 | 0.00 | 0.04 | 0.00 | 84 | 1021.3 |
| 20260905050003 | 53 | 285 | 0.0 | 1.7 | 0.00 | 0.04 | 0.00 | 84 | 1021.3 |
| 20260905045503 | 54 | 285 | 0.9 | 2.6 | 0.00 | 0.05 | 0.00 | 84 | 1021.2 |
| 20260905044504 | 54 | 275 | 2.6 | 7.0 | 0.00 | 0.05 | 0.00 | 84 | 1021.2 |
| 20260905043503 | 54 | 281 | 4.3 | 8.7 | 0.00 | 0.05 | 0.00 | 83 | 1021.1 |
| 20260905042504 | 55 | 288 | 6.1 | 10.4 | 0.00 | 0.05 | 0.00 | 83 | 1020.9 |
| 20260905042004 | 55 | 285 | 5.2 | 8.7 | 0.00 | 0.06 | 0.00 | 82 | 1020.9 |
| 20260905041004 | 55 | 299 | 5.2 | 8.7 | 0.00 | 0.07 | 0.00 | 82 | 1020.9 |
| 20260905040504 | 55 | 295 | 5.2 | 10.4 | 0.00 | 0.08 | 0.00 | 82 | 1020.9 |
| 20260905040004 | 55 | 301 | 5.2 | 8.7 | 0.00 | 0.08 | 0.00 | 82 | 1020.9 |
| 20260905034504 | 55 | 303 | 6.1 | 10.4 | 0.00 | 0.09 | 0.00 | 82 | 1020.8 |
| 20260905034003 | 55 | 307 | 4.3 | 10.4 | 0.00 | 0.10 | 0.00 | 82 | 1020.7 |
| 20260905033504 | 55 | 292 | 4.3 | 8.7 | 0.00 | 0.10 | 0.00 | 81 | 1020.7 |
| 20260905033003 | 55 | 277 | 2.6 | 10.4 | 0.00 | 0.11 | 0.00 | 81 | 1020.6 |
| 20260905032504 | 55 | 280 | 5.2 | 10.4 | 0.00 | 0.11 | 0.00 | 81 | 1020.5 |
| 20260905031004 | 55 | 298 | 6.1 | 11.3 | 0.00 | 0.12 | 0.00 | 81 | 1020.5 |
| 20260905030004 | 55 | 300 | 6.1 | 10.4 | 0.00 | 0.13 | 0.00 | 82 | 1020.4 |
| 20260905025503 | 55 | 288 | 5.2 | 8.7 | 0.00 | 0.13 | 0.00 | 82 | 1020.3 |
| 20260905025003 | 55 | 283 | 6.1 | 8.7 | 0.00 | 0.13 | 0.00 | 82 | 1020.3 |
| 20260905024504 | 55 | 297 | 5.2 | 11.3 | 0.00 | 0.14 | 0.00 | 82 | 1020.4 |
| 20260905024004 | 55 | 290 | 4.3 | 10.4 | 0.00 | 0.14 | 0.00 | 82 | 1020.3 |
| 20260905023503 | 55 | 287 | 5.2 | 10.4 | 0.00 | 0.14 | 0.00 | 83 | 1020.3 |
| 20260905023004 | 55 | 291 | 4.3 | 8.7 | 0.00 | 0.15 | 0.00 | 83 | 1020.3 |
| 20260905022503 | 55 | 264 | 1.7 | 6.1 | 0.00 | 0.15 | 0.00 | 83 | 1020.3 |
| 20260905022003 | 56 | 257 | 2.6 | 8.7 | 0.00 | 0.16 | 0.00 | 83 | 1020.2 |
| 20260905021503 | 56 | 280 | 5.2 | 10.4 | 0.00 | 0.16 | 0.00 | 83 | 1020.1 |
| 20260905021004 | 56 | 277 | 7.0 | 12.2 | 0.00 | 0.16 | 0.00 | 83 | 1020.0 |
| 20260905020504 | 56 | 275 | 5.2 | 12.2 | 0.00 | 0.16 | 0.00 | 83 | 1020.0 |
| 20260905020003 | 56 | 289 | 7.8 | 10.4 | 0.00 | 0.16 | 0.00 | 83 | 1020.0 |
| 20260905015503 | 56 | 289 | 8.7 | 12.2 | 0.00 | 0.16 | 0.00 | 83 | 1020.0 |
| 20260905015004 | 56 | 283 | 7.8 | 13.9 | 0.00 | 0.16 | 0.00 | 84 | 1019.8 |
| 20260905014503 | 56 | 286 | 7.0 | 11.3 | 0.00 | 0.16 | 0.00 | 84 | 1019.8 |
| 20260905014003 | 55 | 301 | 7.0 | 11.3 | 0.00 | 0.16 | 0.00 | 85 | 1019.9 |
| 20260905013503 | 55 | 289 | 4.3 | 10.4 | 0.00 | 0.16 | 0.00 | 86 | 1019.8 |
| 20260905012503 | 55 | 273 | 6.1 | 10.4 | 0.00 | 0.16 | 0.00 | 86 | 1019.7 |
| 20260905011503 | 55 | 269 | 7.8 | 11.3 | 0.00 | 0.16 | 0.00 | 87 | 1019.7 |
| 20260905011003 | 55 | 288 | 6.1 | 10.4 | 0.00 | 0.16 | 0.00 | 88 | 1019.6 |
| 20260905010503 | 54 | 286 | 5.2 | 10.4 | 0.00 | 0.16 | 0.00 | 89 | 1019.6 |
| 20260905010003 | 54 | 287 | 6.1 | 10.4 | 0.00 | 0.16 | 0.00 | 89 | 1019.6 |
| 20260905005504 | 54 | 277 | 4.3 | 8.7 | 0.00 | 0.16 | 0.00 | 89 | 1019.7 |
| 20260905005003 | 54 | 280 | 4.3 | 7.8 | 0.00 | 0.16 | 0.00 | 89 | 1019.6 |
| 20260905004004 | 54 | 254 | 3.5 | 6.1 | 0.00 | 0.16 | 0.00 | 88 | 1019.7 |
| 20260905003504 | 54 | 253 | 2.6 | 6.1 | 0.00 | 0.16 | 0.00 | 88 | 1019.6 |
| 20260905003003 | 54 | 241 | 2.6 | 5.2 | 0.00 | 0.16 | 0.00 | 88 | 1019.7 |
| 20260905002504 | 54 | 257 | 4.3 | 6.1 | 0.00 | 0.16 | 0.00 | 88 | 1019.7 |
| 20260905002004 | 54 | 254 | 2.6 | 6.1 | 0.00 | 0.16 | 0.00 | 88 | 1019.6 |
| 20260905001503 | 55 | 256 | 2.6 | 7.0 | 0.00 | 0.16 | 0.00 | 87 | 1019.6 |
| 20260905001003 | 55 | 261 | 0.9 | 2.6 | 0.00 | 0.16 | 0.00 | 87 | 1019.6 |
| 20260905000503 | 55 | 269 | 1.7 | 2.6 | 0.00 | 0.16 | 0.00 | 88 | 1019.6 |
| 20260905000003 | 55 | 267 | 1.7 | 7.8 | 0.00 | 0.16 | 0.00 | 88 | 1019.5 |
| 20260904234504 | 54 | 280 | 4.3 | 7.0 | 0.00 | 0.17 | 0.00 | 88 | 1019.3 |
| 20260904233003 | 55 | 284 | 2.6 | 2.6 | 0.00 | 0.17 | 0.00 | 87 | 1019.3 |
| 20260904232503 | 55 | 266 | 1.7 | 2.6 | 0.00 | 0.17 | 0.00 | 87 | 1019.2 |
| 20260904232003 | 55 | 265 | 1.7 | 5.2 | 0.00 | 0.17 | 0.00 | 87 | 1019.3 |
| 20260904231504 | 55 | 263 | 2.6 | 5.2 | 0.00 | 0.18 | 0.00 | 87 | 1019.3 |
| 20260904231004 | 55 | 244 | 1.7 | 6.1 | 0.00 | 0.18 | 0.00 | 87 | 1019.2 |
| 20260904230504 | 55 | 258 | 2.6 | 5.2 | 0.00 | 0.20 | 0.00 | 86 | 1019.1 |
| 20260904230003 | 55 | 269 | 3.5 | 6.1 | 0.00 | 0.20 | 0.00 | 86 | 1019.1 |
| 20260904225504 | 55 | 253 | 2.6 | 6.1 | 0.00 | 0.20 | 0.20 | 86 | 1019.1 |
| 20260904223503 | 56 | 246 | 2.6 | 4.3 | 0.00 | 0.20 | 0.20 | 85 | 1019.1 |
| 20260904223003 | 56 | 253 | 1.7 | 2.6 | 0.00 | 0.20 | 0.20 | 85 | 1019.0 |
| 20260904222503 | 56 | 247 | 2.6 | 7.0 | 0.00 | 0.20 | 0.20 | 85 | 1019.0 |
| 20260904222004 | 56 | 247 | 2.6 | 4.3 | 0.00 | 0.20 | 0.20 | 85 | 1018.9 |
| 20260904221504 | 56 | 273 | 2.6 | 7.0 | 0.00 | 0.20 | 0.20 | 85 | 1018.9 |
| 20260904220503 | 56 | 253 | 2.6 | 6.1 | 0.00 | 0.20 | 0.20 | 85 | 1018.9 |
| 20260904220003 | 56 | 250 | 2.6 | 6.1 | 0.00 | 0.20 | 0.20 | 85 | 1019.0 |
| 20260904215504 | 56 | 241 | 2.6 | 6.1 | 0.00 | 0.20 | 0.20 | 85 | 1019.0 |
| 20260904215003 | 56 | 253 | 4.3 | 7.0 | 0.00 | 0.21 | 0.20 | 85 | 1018.8 |
| 20260904214004 | 56 | 265 | 4.3 | 7.0 | 0.00 | 0.21 | 0.20 | 86 | 1018.7 |
| 20260904213504 | 56 | 266 | 4.3 | 7.0 | 0.00 | 0.21 | 0.20 | 86 | 1018.6 |
| 20260904213003 | 56 | 269 | 5.2 | 8.7 | 0.00 | 0.21 | 0.20 | 86 | 1018.5 |
| 20260904212504 | 56 | 251 | 5.2 | 7.8 | 0.00 | 0.21 | 0.20 | 87 | 1018.5 |
| 20260904212004 | 56 | 266 | 5.2 | 7.8 | 0.00 | 0.21 | 0.20 | 87 | 1018.5 |
| 20260904211003 | 56 | 269 | 3.5 | 7.0 | 0.00 | 0.21 | 0.20 | 87 | 1018.4 |
| 20260904210503 | 56 | 265 | 2.6 | 5.2 | 0.00 | 0.21 | 0.20 | 87 | 1018.4 |
| 20260904210004 | 56 | 260 | 4.3 | 7.8 | 0.00 | 0.22 | 0.20 | 87 | 1018.4 |
| 20260904205503 | 56 | 241 | 3.5 | 7.0 | 0.00 | 0.22 | 0.20 | 87 | 1018.4 |
| 20260904205004 | 56 | 249 | 3.5 | 6.1 | 0.00 | 0.24 | 0.20 | 87 | 1018.3 |
| 20260904204504 | 56 | 246 | 2.6 | 4.3 | 0.00 | 0.24 | 0.20 | 87 | 1018.2 |
| 20260904203504 | 56 | 265 | 2.6 | 6.1 | 0.00 | 0.24 | 0.20 | 86 | 1018.2 |
| 20260904203004 | 56 | 265 | 4.3 | 6.1 | 0.00 | 0.24 | 0.20 | 86 | 1018.2 |
| 20260904202503 | 56 | 262 | 2.6 | 6.1 | 0.00 | 0.24 | 0.20 | 85 | 1018.2 |
| 20260904201503 | 57 | 262 | 2.6 | 5.2 | 0.00 | 0.24 | 0.20 | 84 | 1018.2 |
| 20260904201003 | 57 | 260 | 3.5 | 5.2 | 0.00 | 0.24 | 0.20 | 84 | 1018.2 |
| 20260904200504 | 57 | 269 | 2.6 | 6.1 | 0.00 | 0.24 | 0.20 | 83 | 1018.2 |
| 20260904200004 | 58 | 264 | 2.6 | 2.6 | 0.00 | 0.24 | 0.20 | 83 | 1018.1 |
| 20260904195503 | 58 | 259 | 1.7 | 4.3 | 0.00 | 0.24 | 0.20 | 82 | 1018.1 |
| 20260904195004 | 58 | 253 | 2.6 | 5.2 | 0.00 | 0.24 | 0.20 | 82 | 1018.0 |
| 20260904194503 | 58 | 270 | 3.5 | 6.1 | 0.00 | 0.24 | 0.20 | 82 | 1018.0 |
| 20260904193504 | 59 | 252 | 2.6 | 7.0 | 0.00 | 0.24 | 0.20 | 81 | 1017.8 |
| 20260904193004 | 59 | 260 | 4.3 | 8.7 | 0.00 | 0.24 | 0.20 | 81 | 1017.8 |
| 20260904192504 | 59 | 261 | 5.2 | 7.8 | 0.00 | 0.24 | 0.20 | 81 | 1017.8 |
| 20260904192003 | 59 | 279 | 4.3 | 8.7 | 0.00 | 0.24 | 0.20 | 80 | 1017.8 |